Regional Weather Roundup
Issued by NWS

Home | Current Version | Previous Version | Text Only | Print | Product List | Glossary Off
Versions: 1 2 3 4 5 6 7 8 9 10 11 12 13 14 15 16 17 18 19 20 21 22 23 24 25 26 27 28 29 30 31 32 33 34 35 36 37 38 39 40 41 42 43 44 45 46 47 48 49 50

000
ASUS43 KDMX 030907
RWRIA

WEATHER ROUNDUP FOR IOWA
NATIONAL WEATHER SERVICE DES MOINES IA
400 AM CDT MON AUG 03 2015

NOTE: "FAIR" INDICATES FEW OR NO CLOUDS BELOW 12,000 FEET WITH NO
SIGNIFICANT WEATHER AND/OR OBSTRUCTIONS TO VISIBILITY.

* - THESE STATIONS ARE NOT NWS STATIONS...THUS NOT UNDER NWS
QUALITY CONTROL.  THEY ALSO DO NOT REPORT WEATHER SUCH
AS PRECIPITATION OR FOG.

IAZ001>003-012>014-020>022-031>034-043>046-031000-
   NORTHWEST IOWA

CITY           SKY/WX    TMP DP  RH WIND       PRES   REMARKS
CARROLL *      PTCLDY    63  61  94 N3        29.93S
CHEROKEE *     CLEAR     59  59 100 CALM      29.95R
DENISON *      CLOUDY    66  63  88 N5        29.92R
LE MARS *      CLEAR     59  59 100 CALM      29.96R
ORANGE CITY *  CLEAR     63  55  77 N3        29.95R
SHELDON *      CLEAR     59  55  88 N3        29.93R
SPENCER        CLEAR     61  55  81 N8        29.93S
STORM LAKE *   CLEAR     61  57  88 CALM      29.96R
$$

IAZ055>058-069>071-079>083-090>094-031000-
   SOUTHWEST IOWA

CITY           SKY/WX    TMP DP  RH WIND       PRES   REMARKS
ATLANTIC *     CLOUDY    66  64  94 CALM      29.93S
AUDUBON *      CLEAR     63  61  94 CALM      29.95R
CLARINDA *     MOCLDY    70  70 100 N5        29.92S
COUNCIL BLFS *   N/A     68  63  83 E7        29.93R
CRESTON *      CLEAR     68  64  88 CALM      29.94R
HARLAN  *      PTCLDY    64  64 100 CALM      29.97R
LAMONI         LGT RAIN  67  63  87 N5        29.91R
RED OAK *      MOCLDY    68  66  94 NE6       29.93R
SHENANDOAH *   CLOUDY    72  68  88 NE7       29.91R
$$

IAZ047>049-059>061-072>074-084-031000-
   CENTRAL IOWA

CITY           SKY/WX    TMP DP  RH WIND       PRES   REMARKS
AMES           CLEAR     64  59  83 N6        29.91R
ANKENY *       CLOUDY    66  61  82 CALM      29.91S
CHARITON *     PTCLDY    66  63  88 W5        29.91R
DES MOINES     PTCLDY    72  59  63 N6        29.91S
GRINNELL*      CLEAR     63  59  88 W5        29.91R
KNOXVILLE *    CLOUDY    72  59  64 N9        29.88S
MARSHALLTOWN   CLEAR     62  57  83 NW7       29.89R
PELLA *        PTCLDY    66  64  94 NW5       29.90S
PERRY *        MOCLDY    68  61  77 CALM      29.93R
$$

IAZ004>006-015-016-023>025-035-036-031000-
   NORTH CENTRAL IOWA

CITY           SKY/WX    TMP DP  RH WIND       PRES   REMARKS
ALGONA *       CLEAR     59  57  94 N7        29.92R
CLARION *      CLEAR     55  54  94 CALM      29.92R
ESTHERVILLE    CLEAR     56  54  93 NW6       29.92F
FORT DODGE *   CLEAR     57  55  94 SW3       29.93R
MASON CITY     CLEAR     58  56  93 NW7       29.92S
FOREST CITY *  CLEAR     59  55  88 N7        29.91S
IOWA FALLS *     N/A     59  55  88 NW3       29.91F
$$

IAZ007>011-017>019-026>030-037>042-050>054-066-031000-
   NORTHEAST IOWA

CITY           SKY/WX    TMP DP  RH WIND       PRES   REMARKS
CEDAR RAPIDS   CLEAR     66  61  84 NW9       29.84R
CHARLES CITY * CLEAR     57  55  94 NW5       29.90R
CLINTON *      CLEAR     64  61  88 N7        29.83R
DECORAH *      CLEAR     61  55  82 NW5       29.87R
DUBUQUE        CLEAR     66  59  78 N10       29.84R
MONTICELLO *   CLEAR     64  61  88 NW8       29.84R
OELWEIN *      CLEAR     59  57  94 NW7       29.89R
WATERLOO       CLEAR     60  56  86 NW7       29.87S
$$

IAZ064-065-067-068-078-031000-
   EAST CENTRAL IOWA

CITY           SKY/WX    TMP DP  RH WIND       PRES   REMARKS
DAVENPORT      CLEAR     66  62  87 NW6       29.83R
IOWA CITY      PTCLDY    67  61  81 W8        29.86R
MT. PLEASANT * PTCLDY    72  59  64 W6        29.87R
MUSCATINE *    MOCLDY    68  63  83 W3        29.85R
QUAD CITIES    PTCLDY    69  62  78 W6        29.82R
$$

IAZ062-063-075>077-085>089-095>099-031000-
   SOUTHEAST IOWA

CITY           SKY/WX    TMP DP  RH WIND       PRES   REMARKS
BURLINGTON     PTCLDY    69  63  81 NW6       29.84R
FAIRFIELD *    CLEAR     64  61  88 NW6       29.87R
FORT MADISON * MOCLDY    66  63  88 N7        29.86R
KEOKUK *       CLEAR     70  63  78 NW7       29.85R
OSKALOOSA *      N/A     66  61  82 NW3       29.89R
CENTERVILLE *  CLEAR     64  63  94 NW8       29.92R
OTTUMWA        CLEAR     65  63  93 NW9       29.87R
WASHINGTON *   PTCLDY    66  63  88 NW7       29.87S
$$

ABBREVIATIONS USED IN REMARKS
   TC - TEMPERATURES IN CELSIUS
  WCI - WIND CHILL INDEX
   HX - HEAT INDEX
  VSB - VISIBILITY
$$



USA.gov is the U.S. government's official web portal to all federal, state and local government web resources and services.